Carnival Liberty — HPYE — position and weather

sailwx.info

Track history (hours):
 
Tides and Currents Weather Stations Pressure Air Temp Water Temp Dewpoint Dewpoint Depression Visibility Wind Speed Wind Dir Waves Ship Positions

Carnival Liberty

Last reported at 2015-May-24 03:32 UTC. Time now 2015-May-25 07:10 UTC.
Position N 18°10' W 064°57'.

Type: Ship. MMSI: 371083000.

Date/timePositionNaut miles runAvg speedWind from/ knotsBaromVisibWave heightAir tempDewpointWater temp
2015-May-24 03:32N 18°10' W 064°57'8118.2
2015-May-23 23:05N 18°02' W 063°32'1119.8
2015-May-23 22:33N 18°01' W 063°21'1717.2
2015-May-23 21:33N 18°00' W 063°03'1 0.5
2015-May-23 20:26N 18°01' W 063°03'0 0.0
2015-May-23 19:29N 18°01' W 063°03'0 0.0
2015-May-23 18:10N 18°01' W 063°03'0 0.0
2015-May-23 17:22N 18°01' W 063°03'0 0.0
2015-May-23 16:25N 18°01' W 063°03'0 0.0
2015-May-23 14:33N 18°01' W 063°03'0 0.0
2015-May-23 13:23N 18°01' W 063°03'0 0.0
2015-May-23 12:29N 18°01' W 063°03'0 0.0
2015-May-23 11:28N 18°01' W 063°03'1 1.3
2015-May-23 10:33N 18°00' W 063°04'5 5.2
2015-May-23 09:32N 18°00' W 063°09'9 9.4
2015-May-23 08:33N 18°02' W 063°19'9 9.5
2015-May-23 07:33N 18°06' W 063°28'9 9.3
2015-May-23 06:33N 18°09' W 063°37'9 8.4
2015-May-23 05:32N 18°00' W 063°40'8 8.2
2015-May-23 04:33N 17°57' W 063°32'9 9.2
2015-May-23 03:33N 17°54' W 063°23'9 8.9
2015-May-23 02:33N 17°49' W 063°15'9 9.1
2015-May-23 01:33N 17°42' W 063°09'62 3.6
2015-May-22 08:14N 16°49' W 062°35'1116.7
2015-May-22 07:33N 16°39' W 062°30'11417.5
2015-May-22 01:04N 14°58' W 061°37'917.4
2015-May-22 00:34N 14°50' W 061°33'1818.0
2015-May-21 23:34N 14°34' W 061°24'1818.3
2015-May-21 22:34N 14°17' W 061°16'1818.1
2015-May-21 21:33N 14°03' W 061°04'4 4.4
2015-May-21 20:33N 14°01' W 060°60'0 0.0
2015-May-21 19:33N 14°01' W 060°60'0 0.0
2015-May-21 18:32N 14°01' W 060°60'0 0.0
2015-May-21 17:32N 14°01' W 060°60'0 0.0
2015-May-21 16:31N 14°01' W 060°60'0 0.0
2015-May-21 15:31N 14°01' W 060°60'0 0.0
2015-May-21 14:31N 14°01' W 060°60'0 0.0
2015-May-21 13:33N 14°01' W 060°60'0 0.0
2015-May-21 12:33N 14°01' W 060°60'0 0.0
2015-May-21 11:33N 14°01' W 060°60'5 5.4
2015-May-21 10:33N 14°01' W 061°05'10 9.5
2015-May-21 09:33N 13°57' W 061°14'33 1.0
2015-May-20 00:27N 14°12' W 060°43'8 9.2
2015-May-19 23:33N 14°13' W 060°52'1010.0
2015-May-19 22:33N 14°14' W 061°02'1010.0
2015-May-19 21:33N 14°15' W 061°12'10 9.7
2015-May-19 20:33N 14°21' W 061°20'9 9.5
2015-May-19 19:33N 14°28' W 061°26'9 9.3
2015-May-19 18:33N 14°36' W 061°33'9 8.9
2015-May-19 17:33N 14°43' W 061°38'9 8.7
2015-May-19 16:33N 14°49' W 061°44'15714.0
2015-May-19 05:24N 16°44' W 063°35'8316.6
2015-May-19 00:24N 17°54' W 064°21'1517.5
2015-May-18 23:33N 18°01' W 064°35'1817.0
2015-May-18 22:30N 18°09' W 064°52'9 0.7
2015-May-18 10:18N 18°16' W 064°56'7 0.2
2015-May-17 03:32N 18°10' W 064°54'7717.4
2015-May-16 23:05N 18°02' W 063°33'917.1
2015-May-16 22:33N 18°01' W 063°24'1717.0
2015-May-16 21:33N 18°00' W 063°06'3 2.9
2015-May-16 20:32N 18°01' W 063°03'0 0.0
2015-May-16 18:31N 18°01' W 063°03'0 0.0
2015-May-16 17:30N 18°01' W 063°03'0 0.0
2015-May-16 16:31N 18°01' W 063°03'0 0.0
2015-May-16 15:24N 18°01' W 063°03'0 0.0
2015-May-16 13:08N 18°01' W 063°03'0 0.0
2015-May-16 11:31N 18°01' W 063°03'0 0.0
2015-May-16 10:32N 18°01' W 063°03'5 5.5
2015-May-16 09:33N 18°00' W 063°08'9 8.6
2015-May-16 08:33N 18°02' W 063°17'9 8.9
2015-May-16 07:33N 18°05' W 063°26'9 9.4
2015-May-16 06:33N 18°09' W 063°35'8 7.5
2015-May-16 05:33N 18°02' W 063°40'8 8.4
2015-May-16 04:33N 17°57' W 063°32'9 9.5
2015-May-16 03:33N 17°54' W 063°23'9 9.3
2015-May-16 02:33N 17°49' W 063°15'9 9.3
2015-May-16 01:33N 17°42' W 063°09'186 7.7
2015-May-15 01:12N 14°58' W 061°37'1117.2
2015-May-15 00:34N 14°48' W 061°32'1817.6
2015-May-14 23:34N 14°32' W 061°23'1817.8
2015-May-14 22:33N 14°16' W 061°15'1716.7
2015-May-14 21:31N 14°03' W 061°03'4 4.2
2015-May-14 20:33N 14°01' W 060°60'0 0.0
2015-May-14 19:33N 14°01' W 060°60'0 0.0
2015-May-14 18:32N 14°01' W 060°60'0 0.0
2015-May-14 17:32N 14°01' W 060°60'0 0.0
2015-May-14 16:32N 14°01' W 060°60'0 0.0
2015-May-14 15:31N 14°01' W 060°60'0 0.0
2015-May-14 14:31N 14°01' W 060°60'0 0.0
2015-May-14 13:30N 14°01' W 060°60'0 0.0
2015-May-14 12:30N 14°01' W 060°60'0 0.0
2015-May-14 11:33N 14°01' W 060°60'5 4.9
2015-May-14 10:34N 14°02' W 061°05'9 9.1
2015-May-14 09:34N 13°57' W 061°13'  
Track history (hours):
 
Tides and Currents Weather Stations Pressure Air Temp Water Temp Dewpoint Dewpoint Depression Visibility Wind Speed Wind Dir Waves Ship Positions

Carnival Liberty

Last reported at 2015-May-24 03:32 UTC. Time now 2015-May-25 07:10 UTC.
Position N 18°10' W 064°57'.

Type: Ship. MMSI: 371083000.

Date/timePositionNaut miles runAvg speedWind from/ knotsBaromVisibWave heightAir tempDewpointWater temp
2015-May-24 03:32N 18°10' W 064°57'8118.2
2015-May-23 23:05N 18°02' W 063°32'1119.8
2015-May-23 22:33N 18°01' W 063°21'1717.2
2015-May-23 21:33N 18°00' W 063°03'1 0.5
2015-May-23 20:26N 18°01' W 063°03'0 0.0
2015-May-23 19:29N 18°01' W 063°03'0 0.0
2015-May-23 18:10N 18°01' W 063°03'0 0.0
2015-May-23 17:22N 18°01' W 063°03'0 0.0
2015-May-23 16:25N 18°01' W 063°03'0 0.0
2015-May-23 14:33N 18°01' W 063°03'0 0.0
2015-May-23 13:23N 18°01' W 063°03'0 0.0
2015-May-23 12:29N 18°01' W 063°03'0 0.0
2015-May-23 11:28N 18°01' W 063°03'1 1.3
2015-May-23 10:33N 18°00' W 063°04'5 5.2
2015-May-23 09:32N 18°00' W 063°09'9 9.4
2015-May-23 08:33N 18°02' W 063°19'9 9.5
2015-May-23 07:33N 18°06' W 063°28'9 9.3
2015-May-23 06:33N 18°09' W 063°37'9 8.4
2015-May-23 05:32N 18°00' W 063°40'8 8.2
2015-May-23 04:33N 17°57' W 063°32'9 9.2
2015-May-23 03:33N 17°54' W 063°23'9 8.9
2015-May-23 02:33N 17°49' W 063°15'9 9.1
2015-May-23 01:33N 17°42' W 063°09'62 3.6
2015-May-22 08:14N 16°49' W 062°35'1116.7
2015-May-22 07:33N 16°39' W 062°30'11417.5
2015-May-22 01:04N 14°58' W 061°37'917.4
2015-May-22 00:34N 14°50' W 061°33'1818.0
2015-May-21 23:34N 14°34' W 061°24'1818.3
2015-May-21 22:34N 14°17' W 061°16'1818.1
2015-May-21 21:33N 14°03' W 061°04'4 4.4
2015-May-21 20:33N 14°01' W 060°60'0 0.0
2015-May-21 19:33N 14°01' W 060°60'0 0.0
2015-May-21 18:32N 14°01' W 060°60'0 0.0
2015-May-21 17:32N 14°01' W 060°60'0 0.0
2015-May-21 16:31N 14°01' W 060°60'0 0.0
2015-May-21 15:31N 14°01' W 060°60'0 0.0
2015-May-21 14:31N 14°01' W 060°60'0 0.0
2015-May-21 13:33N 14°01' W 060°60'0 0.0
2015-May-21 12:33N 14°01' W 060°60'0 0.0
2015-May-21 11:33N 14°01' W 060°60'5 5.4
2015-May-21 10:33N 14°01' W 061°05'10 9.5
2015-May-21 09:33N 13°57' W 061°14'33 1.0
2015-May-20 00:27N 14°12' W 060°43'8 9.2
2015-May-19 23:33N 14°13' W 060°52'1010.0
2015-May-19 22:33N 14°14' W 061°02'1010.0
2015-May-19 21:33N 14°15' W 061°12'10 9.7
2015-May-19 20:33N 14°21' W 061°20'9 9.5
2015-May-19 19:33N 14°28' W 061°26'9 9.3
2015-May-19 18:33N 14°36' W 061°33'9 8.9
2015-May-19 17:33N 14°43' W 061°38'9 8.7
2015-May-19 16:33N 14°49' W 061°44'15714.0
2015-May-19 05:24N 16°44' W 063°35'8316.6
2015-May-19 00:24N 17°54' W 064°21'1517.5
2015-May-18 23:33N 18°01' W 064°35'1817.0
2015-May-18 22:30N 18°09' W 064°52'9 0.7
2015-May-18 10:18N 18°16' W 064°56'7 0.2
2015-May-17 03:32N 18°10' W 064°54'7717.4
2015-May-16 23:05N 18°02' W 063°33'917.1
2015-May-16 22:33N 18°01' W 063°24'1717.0
2015-May-16 21:33N 18°00' W 063°06'3 2.9
2015-May-16 20:32N 18°01' W 063°03'0 0.0
2015-May-16 18:31N 18°01' W 063°03'0 0.0
2015-May-16 17:30N 18°01' W 063°03'0 0.0
2015-May-16 16:31N 18°01' W 063°03'0 0.0
2015-May-16 15:24N 18°01' W 063°03'0 0.0
2015-May-16 13:08N 18°01' W 063°03'0 0.0
2015-May-16 11:31N 18°01' W 063°03'0 0.0
2015-May-16 10:32N 18°01' W 063°03'5 5.5
2015-May-16 09:33N 18°00' W 063°08'9 8.6
2015-May-16 08:33N 18°02' W 063°17'9 8.9
2015-May-16 07:33N 18°05' W 063°26'9 9.4
2015-May-16 06:33N 18°09' W 063°35'8 7.5
2015-May-16 05:33N 18°02' W 063°40'8 8.4
2015-May-16 04:33N 17°57' W 063°32'9 9.5
2015-May-16 03:33N 17°54' W 063°23'9 9.3
2015-May-16 02:33N 17°49' W 063°15'9 9.3
2015-May-16 01:33N 17°42' W 063°09'186 7.7
2015-May-15 01:12N 14°58' W 061°37'1117.2
2015-May-15 00:34N 14°48' W 061°32'1817.6
2015-May-14 23:34N 14°32' W 061°23'1817.8
2015-May-14 22:33N 14°16' W 061°15'1716.7
2015-May-14 21:31N 14°03' W 061°03'4 4.2
2015-May-14 20:33N 14°01' W 060°60'0 0.0
2015-May-14 19:33N 14°01' W 060°60'0 0.0
2015-May-14 18:32N 14°01' W 060°60'0 0.0
2015-May-14 17:32N 14°01' W 060°60'0 0.0
2015-May-14 16:32N 14°01' W 060°60'0 0.0
2015-May-14 15:31N 14°01' W 060°60'0 0.0
2015-May-14 14:31N 14°01' W 060°60'0 0.0
2015-May-14 13:30N 14°01' W 060°60'0 0.0
2015-May-14 12:30N 14°01' W 060°60'0 0.0
2015-May-14 11:33N 14°01' W 060°60'5 4.9
2015-May-14 10:34N 14°02' W 061°05'9 9.1
2015-May-14 09:34N 13°57' W 061°13'  

Dump ship's entire track history